Weather Roundup
Issued by NWS Springfield, MO

Home | Current Version | Previous Version | Text Only | Print | Product List | Glossary On
Versions: 1 2 3 4 5 6 7 8 9 10 11 12 13 14 15 16 17 18 19 20 21 22 23 24 25 26 27 28 29 30 31 32 33 34 35 36 37 38 39 40 41 42 43 44 45 46 47 48 49 50
282
NZUS99 KSGF 210757
HRRSGF

HOURLY WEATHER
NATIONAL WEATHER SERVICE SPRINGFIELD MO
300 AM CDT MON AUG 21 2017

......SGF CWA......

CITY           SKY/WX    TMP DP  RH WIND       PRES   REMARKS
SPRINGFIELD    CLEAR     71  70  96 S12       30.06F
JOPLIN         CLOUDY    77  72  84 SE5       30.05F
WEST PLAINS    CLEAR     75  71  87 SW6       30.11F
ROLLA          CLEAR     74  72  93 S8        30.08F

......SURROUNDING SGF CWA......

CITY           SKY/WX    TMP DP  RH WIND       PRES   REMARKS
CHANUTE        PTCLDY    74  72  93 SE7       30.02F
PARSONS        MOCLDY    77  72  84 S5        30.03F
COFFEYVILLE    PTCLDY    78  73  84 S7        30.02F
EMPORIA        PTCLDY    76  72  87 S12       30.00F
HARRISON AR    CLEAR     77  73  87 S6        30.11F

......KANSAS AND MISSOURI......

CITY           SKY/WX    TMP DP  RH WIND       PRES   REMARKS
KANSAS CTY INT CLEAR     74  69  85 S10       29.99S
SEDALIA        PTCLDY    73  65  75 S7        30.04S
ST JOSEPH      CLEAR     76  71  85 S9        29.96S
ST LOUIS       CLOUDY    79  74  84 S6        30.06F
WICHITA        CLOUDY    79  73  82 S8        30.00F
TOPEKA         CLEAR     77  73  87 S7        29.97F
OLATHE         PTCLDY    74  68  81 S9        30.00F

......TENNESSEE......

CITY           SKY/WX    TMP DP  RH WIND       PRES   REMARKS
MEMPHIS        NOT AVBL
NASHVILLE      MOCLDY    74  69  85 CALM      30.13R

......ARKANSAS.......

CITY           SKY/WX    TMP DP  RH WIND       PRES   REMARKS
FAYETTEVILLE   CLEAR     70  70 100 CALM      30.10F
FT SMITH       CLEAR     75  72  90 NE5       30.07S
LITTLE ROCK    CLEAR     77  77 100 CALM      30.08F

......OKLAHOMA.......

CITY           SKY/WX    TMP DP  RH WIND       PRES   REMARKS
TULSA          PTCLDY    81  75  82 S9        30.02F
PONCA CITY     PTCLDY    81  72  74 S9        30.01F
MCALESTER      CLOUDY    79  71  76 S3        30.07S
OKLAHOMA CITY  PTCLDY    75  71  87 S9        30.04F

......IOWA............

CITY           SKY/WX    TMP DP  RH WIND       PRES   REMARKS
DES MOINES     NOT AVBL
QUAD CITIES    CLOUDY    66  64  93 CALM      30.01S FOG

......ILLINOIS........

CITY           SKY/WX    TMP DP  RH WIND       PRES   REMARKS
QUINCY         CLOUDY    71  67  87 S5        30.04R
CHICAGO        PTCLDY    73  69  87 S8        30.02F




USA.gov is the U.S. government's official web portal to all federal, state and local government web resources and services.